{"data":{"norad_id":60949,"intl_designator":"2024-156E","name":"YAOGAN-43 02E","alt_names":[],"object_type":"PAYLOAD","status":"ACTIVE","operator":null,"country":"PRC","launch_date":"2024-09-03","launch_site_code":"XICLF","launch_vehicle":null,"mission":null,"orbit_class":"UNKNOWN","rcs_meters":null,"size_class":null,"mass_kg":null,"dimensions":null,"purposes":[],"wikipedia_slug":null,"has_3d_model":false,"image_url":null,"decayed_at":null,"tle_current":{"epoch":"2026-09-22T19:03:51.825312Z","epoch_age_seconds":93450,"freshness":"FRESH","line1":"1 60949U 24156E   26265.79434983  .00007637  00000+0  31797-3 0  9996","line2":"2 60949  34.9969 304.3038 0004422 134.0921 226.0158 15.23018458114336","mean_motion":15.23018458,"eccentricity":0.0004422,"inclination_deg":34.9969,"raan_deg":304.3038,"arg_perigee_deg":134.0921,"mean_anomaly_deg":226.0158,"bstar":0.00031797,"rev_number":11433,"period_min":94.549083921871,"perigee_km":493.70200202628,"apogee_km":499.78214507893,"semimajor_km":6874.8790735526,"source":"CELESTRAK","updated_at":"2026-09-23T09:00:20.759457Z"}}}